| time (UTC) | temp F | wind direction | speed knots | gust knots | rain 1hr in | rain 24hr in | rain mn in | humidity % | barometer mb |
| 20260507085551 | 50 | 282 | 0.0 | 1.7 | 0.00 | 0.22 | 0.03 | 78 | 1008.9 |
| 20260507084443 | 50 | 282 | 0.9 | 2.6 | 0.01 | 0.22 | 0.03 | 78 | 1008.7 |
| 20260507083444 | 50 | 261 | 1.7 | 4.3 | 0.01 | 0.22 | 0.03 | 78 | 1008.9 |
| 20260507082444 | 51 | 305 | 0.9 | 2.6 | 0.01 | 0.22 | 0.03 | 78 | 1008.5 |
| 20260507081444 | 51 | 276 | 0.9 | 1.7 | 0.01 | 0.22 | 0.03 | 79 | 1008.6 |
| 20260507080553 | 51 | 273 | 0.0 | 1.7 | 0.01 | 0.22 | 0.03 | 79 | 1008.4 |
| 20260507075443 | 51 | 281 | 0.0 | 2.6 | 0.01 | 0.22 | 0.03 | 79 | 1008.8 |
| 20260507074441 | 51 | 289 | 0.9 | 1.7 | 0.00 | 0.21 | 0.02 | 79 | 1008.7 |
| 20260507073441 | 51 | 289 | 0.0 | 0.9 | 0.00 | 0.21 | 0.02 | 79 | 1008.9 |
| 20260507072441 | 51 | 289 | 0.0 | 0.9 | 0.00 | 0.21 | 0.02 | 80 | 1008.3 |
| 20260507071536 | 51 | 289 | 0.0 | 0.9 | 0.00 | 0.21 | 0.02 | 80 | 1007.9 |
| 20260507070441 | 51 | 288 | 0.0 | 1.7 | 0.00 | 0.21 | 0.02 | 80 | 1008.0 |
| 20260507065442 | 51 | 289 | 0.9 | 2.6 | 0.00 | 0.21 | 0.02 | 80 | 1007.8 |
| 20260507064437 | 51 | 285 | 0.9 | 2.6 | 0.00 | 0.21 | 0.02 | 81 | 1007.9 |
| 20260507063437 | 52 | 274 | 0.0 | 2.6 | 0.00 | 0.21 | 0.02 | 81 | 1007.8 |
| 20260507062439 | 52 | 294 | 0.9 | 3.5 | 0.00 | 0.21 | 0.02 | 82 | 1007.9 |
| 20260507061503 | 52 | 299 | 1.7 | 3.5 | 0.00 | 0.21 | 0.02 | 82 | 1007.8 |
| 20260507060434 | 52 | 298 | 1.7 | 4.3 | 0.00 | 0.21 | 0.02 | 82 | 1007.9 |
| 20260507055449 | 53 | 311 | 1.7 | 4.3 | 0.00 | 0.21 | 0.02 | 82 | 1007.9 |
| 20260507054434 | 53 | 297 | 0.9 | 3.5 | 0.00 | 0.21 | 0.02 | 83 | 1008.2 |
| 20260507053430 | 54 | 288 | 0.9 | 1.7 | 0.00 | 0.21 | 0.02 | 83 | 1008.3 |
| 20260507052432 | 54 | 288 | 1.7 | 4.3 | 0.00 | 0.21 | 0.02 | 83 | 1008.2 |
| 20260507051429 | 54 | 337 | 1.7 | 2.6 | 0.01 | 0.21 | 0.02 | 83 | 1008.3 |
| 20260507050430 | 55 | 299 | 1.7 | 4.3 | 0.01 | 0.21 | 0.02 | 83 | 1008.2 |
| 20260507045429 | 55 | 296 | 1.7 | 3.5 | 0.03 | 0.21 | 0.02 | 83 | 1008.2 |
| 20260507044430 | 56 | 297 | 1.7 | 4.3 | 0.03 | 0.21 | 0.02 | 83 | 1008.2 |
| 20260507043429 | 56 | 301 | 1.7 | 5.2 | 0.03 | 0.21 | 0.02 | 83 | 1007.9 |
| 20260507042434 | 56 | 308 | 1.7 | 3.5 | 0.03 | 0.21 | 0.02 | 84 | 1007.9 |
| 20260507041428 | 56 | 259 | 1.7 | 4.3 | 0.02 | 0.20 | 0.01 | 84 | 1008.1 |
| 20260507040429 | 57 | 277 | 2.6 | 6.1 | 0.02 | 0.20 | 0.01 | 84 | 1008.3 |
| 20260507035428 | 57 | 265 | 2.6 | 7.0 | 0.00 | 0.18 | 0.18 | 84 | 1007.9 |
| 20260507034428 | 58 | 257 | 1.7 | 3.5 | 0.00 | 0.18 | 0.18 | 84 | 1007.7 |
| 20260507033428 | 59 | 263 | 2.6 | 6.1 | 0.00 | 0.18 | 0.18 | 84 | 1007.7 |
| 20260507032428 | 60 | 253 | 1.7 | 6.1 | 0.00 | 0.18 | 0.18 | 85 | 1007.4 |
| 20260507031428 | 60 | 201 | 0.9 | 4.3 | 0.00 | 0.18 | 0.18 | 84 | 1007.1 |
| 20260507030427 | 60 | 276 | 1.7 | 7.0 | 0.00 | 0.18 | 0.18 | 84 | 1007.1 |
| 20260507025426 | 60 | 206 | 2.6 | 9.6 | 0.00 | 0.18 | 0.18 | 84 | 1006.9 |
| 20260507024427 | 60 | 195 | 2.6 | 8.7 | 0.00 | 0.18 | 0.18 | 84 | 1007.0 |
| 20260507023426 | 60 | 224 | 3.5 | 7.0 | 0.00 | 0.18 | 0.18 | 84 | 1006.9 |
| 20260507022424 | 59 | 200 | 4.3 | 8.7 | 0.00 | 0.18 | 0.18 | 84 | 1007.1 |
| 20260507021421 | 59 | 184 | 2.6 | 7.0 | 0.00 | 0.18 | 0.18 | 84 | 1006.7 |
| 20260507020423 | 59 | 220 | 1.7 | 4.3 | 0.00 | 0.18 | 0.18 | 84 | 1006.9 |
| 20260507015422 | 59 | 161 | 3.5 | 7.0 | 0.00 | 0.18 | 0.18 | 84 | 1006.9 |
| 20260507014423 | 59 | 179 | 3.5 | 7.0 | 0.00 | 0.18 | 0.18 | 84 | 1007.1 |
| 20260507013422 | 59 | 188 | 2.6 | 6.1 | 0.00 | 0.18 | 0.18 | 84 | 1007.0 |
| 20260507012422 | 59 | 182 | 3.5 | 8.7 | 0.00 | 0.18 | 0.18 | 83 | 1007.1 |
| 20260507011421 | 59 | 174 | 3.5 | 7.0 | 0.00 | 0.18 | 0.18 | 83 | 1007.0 |
| 20260507010421 | 59 | 184 | 3.5 | 9.6 | 0.00 | 0.18 | 0.18 | 83 | 1007.1 |
| 20260507005419 | 60 | 189 | 2.6 | 6.1 | 0.00 | 0.18 | 0.18 | 83 | 1007.1 |
| 20260507004421 | 60 | 204 | 4.3 | 7.8 | 0.00 | 0.18 | 0.18 | 83 | 1007.0 |
| 20260507003417 | 60 | 205 | 2.6 | 7.0 | 0.00 | 0.18 | 0.18 | 82 | 1006.9 |
| 20260507002417 | 60 | 182 | 2.6 | 7.0 | 0.00 | 0.18 | 0.18 | 82 | 1006.9 |
| 20260507001418 | 60 | 191 | 3.5 | 7.0 | 0.01 | 0.18 | 0.18 | 82 | 1006.9 |
| 20260507000541 | 60 | 199 | 3.5 | 8.7 | 0.04 | 0.18 | 0.18 | 82 | 1006.8 |
| 20260506235539 | 60 | 168 | 3.5 | 10.4 | 0.06 | 0.18 | 0.18 | 81 | 1006.7 |
| 20260506234415 | 60 | 177 | 3.5 | 7.0 | 0.07 | 0.18 | 0.18 | 81 | 1006.8 |
| 20260506233415 | 60 | 175 | 3.5 | 7.0 | 0.08 | 0.18 | 0.18 | 81 | 1006.7 |
| 20260506232415 | 60 | 195 | 3.5 | 9.6 | 0.09 | 0.18 | 0.18 | 80 | 1006.8 |
| 20260506231416 | 60 | 159 | 4.3 | 7.8 | 0.08 | 0.17 | 0.17 | 80 | 1006.8 |
| 20260506230417 | 60 | 130 | 3.5 | 9.6 | 0.05 | 0.14 | 0.13 | 80 | 1007.0 |
| 20260506225416 | 60 | 163 | 3.5 | 7.8 | 0.03 | 0.12 | 0.12 | 79 | 1007.0 |
| 20260506224415 | 60 | 229 | 4.3 | 12.2 | 0.03 | 0.11 | 0.11 | 79 | 1007.0 |
| 20260506223415 | 60 | 253 | 3.5 | 7.0 | 0.02 | 0.10 | 0.10 | 79 | 1007.1 |
| 20260506222416 | 60 | 156 | 4.3 | 8.7 | 0.01 | 0.09 | 0.09 | 78 | 1007.1 |
| 20260506221409 | 60 | 185 | 4.3 | 9.6 | 0.02 | 0.09 | 0.09 | 78 | 1007.2 |
| 20260506220409 | 61 | 186 | 4.3 | 11.3 | 0.02 | 0.09 | 0.09 | 78 | 1007.3 |
| 20260506215410 | 61 | 182 | 3.5 | 7.8 | 0.03 | 0.09 | 0.09 | 77 | 1007.5 |
| 20260506214409 | 61 | 166 | 3.5 | 9.6 | 0.02 | 0.08 | 0.08 | 77 | 1007.4 |
| 20260506213410 | 61 | 160 | 4.3 | 8.7 | 0.03 | 0.08 | 0.08 | 77 | 1007.5 |
| 20260506212411 | 61 | 168 | 3.5 | 7.8 | 0.04 | 0.08 | 0.08 | 76 | 1007.7 |
| 20260506211410 | 61 | 193 | 4.3 | 7.8 | 0.04 | 0.07 | 0.07 | 76 | 1007.9 |
| 20260506210409 | 61 | 183 | 3.5 | 8.7 | 0.05 | 0.07 | 0.07 | 75 | 1007.9 |
| 20260506205408 | 62 | 195 | 4.3 | 10.4 | 0.04 | 0.06 | 0.06 | 75 | 1007.9 |
| 20260506204410 | 62 | 203 | 3.5 | 7.0 | 0.04 | 0.06 | 0.06 | 74 | 1008.2 |
| 20260506203410 | 62 | 218 | 3.5 | 7.0 | 0.04 | 0.05 | 0.05 | 73 | 1008.1 |
| 20260506202409 | 62 | 224 | 4.3 | 12.2 | 0.03 | 0.04 | 0.04 | 72 | 1008.1 |
| 20260506201409 | 63 | 201 | 6.1 | 13.9 | 0.03 | 0.03 | 0.03 | 71 | 1007.9 |
| 20260506200408 | 63 | 154 | 4.3 | 14.8 | 0.02 | 0.02 | 0.02 | 70 | 1007.9 |
| 20260506195409 | 64 | 186 | 5.2 | 13.0 | 0.02 | 0.02 | 0.02 | 69 | 1008.1 |
| 20260506194408 | 65 | 214 | 4.3 | 9.6 | 0.02 | 0.02 | 0.02 | 68 | 1008.0 |
| 20260506193410 | 65 | 263 | 3.5 | 7.8 | 0.01 | 0.01 | 0.01 | 66 | 1008.0 |
| 20260506192409 | 66 | 194 | 4.3 | 9.6 | 0.01 | 0.01 | 0.01 | 65 | 1007.9 |
| 20260506191408 | 67 | 205 | 5.2 | 10.4 | 0.00 | 0.00 | 0.00 | 62 | 1007.9 |
| 20260506190409 | 68 | 201 | 4.3 | 9.6 | 0.00 | 0.00 | 0.00 | 60 | 1007.9 |
| 20260506185409 | 69 | 266 | 6.1 | 17.4 | 0.00 | 0.00 | 0.00 | 57 | 1008.0 |
| 20260506184411 | 70 | 244 | 7.8 | 20.9 | 0.00 | 0.00 | 0.00 | 55 | 1008.2 |
| 20260506183407 | 70 | 189 | 10.4 | 20.9 | 0.00 | 0.00 | 0.00 | 54 | 1008.1 |
| 20260506182406 | 72 | 174 | 8.7 | 19.1 | 0.00 | 0.00 | 0.00 | 51 | 1008.0 |
| 20260506181404 | 72 | 188 | 7.8 | 20.0 | 0.00 | 0.00 | 0.00 | 48 | 1008.0 |
| 20260506180403 | 72 | 222 | 7.0 | 20.0 | 0.00 | 0.00 | 0.00 | 48 | 1008.1 |
| 20260506175402 | 73 | 175 | 7.0 | 21.7 | 0.00 | 0.00 | 0.00 | 47 | 1008.2 |
| 20260506174403 | 73 | 195 | 7.0 | 16.5 | 0.00 | 0.00 | 0.00 | 47 | 1008.3 |
| 20260506173403 | 73 | 230 | 6.1 | 15.6 | 0.00 | 0.00 | 0.00 | 48 | 1008.3 |
| 20260506172405 | 73 | 134 | 7.8 | 21.7 | 0.00 | 0.00 | 0.00 | 47 | 1008.3 |
| 20260506171405 | 73 | 209 | 7.0 | 18.2 | 0.00 | 0.00 | 0.00 | 48 | 1008.3 |
| 20260506170403 | 73 | 167 | 7.8 | 18.2 | 0.00 | 0.00 | 0.00 | 49 | 1008.4 |
| 20260506165403 | 72 | 180 | 6.1 | 13.9 | 0.00 | 0.00 | 0.00 | 49 | 1008.5 |
| 20260506164402 | 72 | 164 | 7.0 | 14.8 | 0.00 | 0.00 | 0.00 | 50 | 1008.7 |
| 20260506163403 | 72 | 190 | 7.0 | 17.4 | 0.00 | 0.00 | 0.00 | 50 | 1008.8 |
| 20260506162407 | 72 | 158 | 6.1 | 15.6 | 0.00 | 0.00 | 0.00 | 50 | 1008.8 |
| 20260506161402 | 72 | 219 | 7.0 | 15.6 | 0.00 | 0.00 | 0.00 | 49 | 1009.1 |
| 20260506160447 | 72 | 218 | 7.0 | 13.9 | 0.00 | 0.00 | 0.00 | 50 | 1009.4 |
| 20260506155401 | 72 | 210 | 7.8 | 15.6 | 0.00 | 0.00 | 0.00 | 50 | 1009.6 |
| 20260506154435 | 72 | 182 | 7.0 | 18.2 | 0.00 | 0.00 | 0.00 | 50 | 1009.7 |
| 20260506153401 | 72 | 213 | 6.1 | 13.0 | 0.00 | 0.00 | 0.00 | 51 | 1010.0 |
| 20260506152401 | 72 | 253 | 7.0 | 15.6 | 0.00 | 0.00 | 0.00 | 51 | 1009.9 |
| 20260506151401 | 72 | 218 | 4.3 | 11.3 | 0.00 | 0.00 | 0.00 | 52 | 1010.2 |
| 20260506145617 | 71 | 176 | 6.1 | 13.0 | 0.00 | 0.00 | 0.00 | 53 | 1010.4 |
| 20260506144610 | 71 | 149 | 6.1 | 13.0 | 0.00 | 0.00 | 0.00 | 54 | 1010.3 |
| 20260506143401 | 70 | 181 | 6.1 | 13.0 | 0.00 | 0.00 | 0.00 | 55 | 1010.2 |
| 20260506142401 | 70 | 181 | 6.1 | 17.4 | 0.00 | 0.00 | 0.00 | 55 | 1010.2 |
| 20260506141400 | 70 | 170 | 5.2 | 9.6 | 0.00 | 0.00 | 0.00 | 56 | 1009.9 |
| 20260506140401 | 69 | 170 | 6.1 | 13.0 | 0.00 | 0.00 | 0.00 | 58 | 1010.1 |
| 20260506135402 | 68 | 174 | 3.5 | 12.2 | 0.00 | 0.00 | 0.00 | 59 | 1010.1 |
| 20260506134406 | 68 | 145 | 3.5 | 10.4 | 0.00 | 0.00 | 0.00 | 60 | 1010.3 |
| 20260506133402 | 67 | 193 | 4.3 | 13.0 | 0.00 | 0.00 | 0.00 | 60 | 1010.5 |
| 20260506132401 | 66 | 186 | 5.2 | 10.4 | 0.00 | 0.00 | 0.00 | 61 | 1010.6 |
| 20260506131401 | 66 | 193 | 5.2 | 10.4 | 0.00 | 0.00 | 0.00 | 61 | 1010.6 |
| 20260506130401 | 65 | 171 | 4.3 | 11.3 | 0.00 | 0.00 | 0.00 | 61 | 1010.6 |
| 20260506125404 | 65 | 199 | 5.2 | 12.2 | 0.00 | 0.00 | 0.00 | 61 | 1010.6 |
| 20260506124402 | 65 | 220 | 6.1 | 15.6 | 0.00 | 0.00 | 0.00 | 61 | 1010.6 |
| 20260506123401 | 65 | 238 | 7.0 | 15.6 | 0.00 | 0.00 | 0.00 | 62 | 1010.6 |
| 20260506122403 | 65 | 142 | 5.2 | 12.2 | 0.00 | 0.00 | 0.00 | 62 | 1010.8 |
| 20260506121401 | 65 | 186 | 5.2 | 13.0 | 0.00 | 0.00 | 0.00 | 62 | 1010.7 |
| 20260506120401 | 64 | 211 | 5.2 | 11.3 | 0.00 | 0.00 | 0.00 | 63 | 1010.4 |
| 20260506115402 | 63 | 204 | 6.1 | 12.2 | 0.00 | 0.00 | 0.00 | 64 | 1010.8 |
| 20260506114401 | 63 | 167 | 5.2 | 13.0 | 0.00 | 0.00 | 0.00 | 64 | 1010.8 |
| 20260506113401 | 63 | 159 | 5.2 | 10.4 | 0.00 | 0.00 | 0.00 | 64 | 1010.8 |
| 20260506112400 | 63 | 186 | 5.2 | 15.6 | 0.00 | 0.00 | 0.00 | 64 | 1011.2 |
| 20260506111358 | 63 | 166 | 5.2 | 13.0 | 0.00 | 0.00 | 0.00 | 65 | 1010.9 |
| 20260506110358 | 62 | 177 | 4.3 | 11.3 | 0.00 | 0.00 | 0.00 | 65 | 1010.8 |
| 20260506105401 | 61 | 257 | 4.3 | 10.4 | 0.00 | 0.00 | 0.00 | 66 | 1011.0 |
| 20260506104358 | 61 | 228 | 4.3 | 10.4 | 0.00 | 0.00 | 0.00 | 66 | 1011.1 |
| 20260506103359 | 61 | 211 | 2.6 | 7.8 | 0.00 | 0.00 | 0.00 | 66 | 1011.0 |
| 20260506102357 | 61 | 172 | 3.5 | 7.8 | 0.00 | 0.00 | 0.00 | 65 | 1010.9 |
| 20260506101358 | 61 | 224 | 3.5 | 7.8 | 0.00 | 0.00 | 0.00 | 65 | 1010.9 |
| 20260506100534 | 61 | 140 | 3.5 | 8.7 | 0.00 | 0.00 | 0.00 | 65 | 1010.8 |
| 20260506095359 | 61 | 196 | 3.5 | 7.8 | 0.00 | 0.00 | 0.00 | 65 | 1011.0 |
| 20260506094353 | 61 | 161 | 2.6 | 6.1 | 0.00 | 0.00 | 0.00 | 64 | 1010.8 |
| 20260506093353 | 61 | 149 | 3.5 | 7.0 | 0.00 | 0.00 | 0.00 | 64 | 1010.9 |
| 20260506092533 | 61 | 180 | 4.3 | 9.6 | 0.00 | 0.00 | 0.00 | 64 | 1010.9 |
| 20260506091350 | 61 | 182 | 3.5 | 7.8 | 0.00 | 0.00 | 0.00 | 63 | 1010.8 |
| 20260506090349 | 62 | 197 | 3.5 | 8.7 | 0.00 | 0.00 | 0.00 | 63 | 1010.8 |